Date,TemperatureHighF,TemperatureAvgF,TemperatureLowF,DewpointHighF,DewpointAvgF,DewpointLowF,HumidityHigh,HumidityAvg,HumidityLow,PressureMaxIn,PressureMinIn,WindSpeedMaxMPH,WindSpeedAvgMPH,GustSpeedMaxMPH,PrecipitationSumIn
2013-1-1,44.8,36.2,28.8,37.6,33.1,27.3,95,89,70,30.61,30.48,3,1,4,0.00
2013-1-2,41.7,31.5,28.2,38.0,30.1,27.0,96,94,85,30.51,30.35,3,1,3,0.00
2013-1-3,51.6,35.4,27.5,40.8,32.6,26.8,97,90,66,30.51,30.32,5,2,8,0.00
2013-1-4,45.1,35.0,29.1,40.3,32.9,27.9,97,92,81,30.54,30.37,3,1,4,0.00
2013-1-5,44.1,36.5,31.1,39.9,34.7,30.0,97,93,83,30.40,30.35,2,1,5,0.01
2013-1-6,45.5,39.2,34.7,40.1,37.2,33.7,97,92,81,30.46,30.38,4,1,5,0.00
2013-1-7,49.1,44.2,40.8,45.5,42.6,39.5,97,94,87,30.48,30.39,2,1,3,0.04
2013-1-8,55.9,45.6,40.8,47.4,42.5,38.3,97,90,63,30.50,30.22,4,1,4,0.00
2013-1-9,44.4,38.5,33.1,39.8,35.6,31.8,96,90,78,30.24,30.17,14,2,16,0.22
2013-1-10,39.7,34.9,32.5,38.1,33.5,31.5,97,95,88,30.39,30.24,7,1,7,0.33
2013-1-11,41.0,34.7,28.9,37.9,33.0,27.4,97,93,79,30.50,30.36,4,1,6,0.04
2013-1-12,37.6,32.0,26.8,30.9,28.7,24.8,96,88,72,30.56,30.47,3,0,4,0.01
2013-1-13,35.4,30.4,24.4,30.8,26.7,22.4,95,86,67,30.65,30.55,4,1,6,0.00
2013-1-14,39.2,30.2,25.5,29.8,26.3,23.6,93,86,68,30.76,30.65,4,1,4,0.00
2013-1-15,37.6,30.1,24.8,32.2,27.6,23.1,95,91,79,30.83,30.74,3,1,4,0.00
2013-1-16,37.6,32.4,28.6,34.4,30.6,27.0,96,93,87,30.83,30.66,3,1,4,0.00
2013-1-17,44.1,34.6,30.2,38.4,32.6,28.4,97,93,79,30.67,30.47,2,1,4,0.00
2013-1-18,46.0,34.6,27.1,39.5,32.3,25.9,97,91,77,30.53,30.42,4,1,5,0.00
2013-1-19,46.0,32.1,27.0,39.5,30.0,25.5,97,92,77,30.55,30.43,2,1,2,0.01
2013-1-20,45.5,30.7,24.6,37.4,28.1,23.4,96,90,70,30.55,30.40,2,1,3,0.00
2013-1-21,48.0,31.3,23.2,39.4,27.6,22.0,98,87,61,30.48,30.32,2,1,3,0.01
2013-1-22,44.6,33.6,23.4,37.1,30.1,22.2,95,87,69,30.36,30.13,3,1,3,0.00
2013-1-23,42.6,38.7,32.5,41.4,37.4,31.0,98,95,92,30.37,30.05,4,1,4,0.80
2013-1-24,48.2,43.7,41.0,45.7,42.5,13.1,98,96,31,30.40,30.32,2,0,3,0.08
2013-1-25,53.8,47.2,40.8,52.9,46.4,40.0,98,97,95,30.37,30.20,3,1,4,0.46
2013-1-26,48.4,40.0,36.1,47.0,38.3,35.0,98,94,76,30.35,30.21,12,1,14,0.24
2013-1-27,50.4,39.6,34.7,44.7,37.4,33.9,98,92,72,30.43,30.34,5,1,9,0.08
2013-1-28,41.2,39.4,37.4,40.4,38.5,36.4,97,96,95,30.55,30.37,5,1,5,0.18
2013-1-29,51.1,43.9,39.4,47.7,41.6,38.8,98,92,73,30.73,30.53,4,1,5,0.02
2013-1-30,55.2,45.8,41.5,47.9,42.4,40.5,97,89,65,30.78,30.65,3,1,5,0.00
2013-1-31,48.0,44.7,41.9,43.7,41.4,40.4,95,89,77,30.66,30.56,4,1,4,0.01
2013-2-1,52.0,42.9,34.3,43.5,39.1,32.8,95,87,69,30.56,30.41,3,1,4,0.00
2013-2-2,50.5,41.1,35.1,42.3,37.9,33.5,96,89,72,30.54,30.45,3,1,4,0.01
2013-2-3,47.1,42.1,38.7,41.8,39.6,37.3,96,91,79,30.53,30.44,3,1,4,0.00
2013-2-4,54.5,45.2,41.2,44.7,40.9,39.2,94,86,65,30.44,30.19,4,1,4,0.00
2013-2-5,55.9,42.8,34.3,50.8,37.7,32.3,97,84,47,30.36,30.20,12,2,12,0.02
2013-2-6,54.3,43.4,32.5,44.7,34.9,31.0,95,75,46,30.39,30.13,8,2,15,0.06
2013-2-7,47.7,40.8,36.5,39.1,36.1,34.7,93,84,64,30.30,30.18,8,1,8,0.06
2013-2-8,48.6,39.0,32.2,37.0,32.4,27.6,91,78,55,30.47,30.30,11,2,13,0.00
2013-2-9,48.6,38.8,31.1,38.3,32.7,28.8,93,80,55,30.49,30.45,6,2,8,0.00
2013-2-10,45.9,41.6,37.0,38.7,35.8,34.3,92,81,67,30.51,30.47,6,2,8,0.00
2013-2-11,47.3,40.9,34.9,36.7,34.5,31.9,90,78,63,30.64,30.50,4,1,8,0.00
2013-2-12,52.5,43.1,37.8,45.1,39.5,35.5,95,88,73,30.72,30.64,4,1,4,0.04
2013-2-13,54.7,46.3,39.2,44.5,41.8,37.9,95,85,65,30.72,30.63,3,1,6,0.00
2013-2-14,61.2,48.2,37.4,47.6,41.3,35.5,93,79,52,30.74,30.62,8,2,9,0.00
2013-2-15,55.9,44.2,37.4,46.8,40.8,35.8,95,88,68,30.64,30.41,4,1,4,0.00
2013-2-16,50.4,42.7,37.8,43.4,39.3,36.5,96,88,71,30.53,30.46,4,1,6,0.01
2013-2-17,49.8,40.9,31.1,39.0,34.0,28.5,95,79,49,30.50,30.29,6,2,9,0.00
2013-2-18,48.9,36.8,28.8,37.1,31.9,26.8,94,84,59,30.29,29.98,4,1,4,0.00
2013-2-19,46.8,39.1,31.8,39.2,35.0,30.0,95,86,66,30.21,29.86,6,2,8,0.12
2013-2-20,50.2,42.5,36.5,38.7,35.6,31.6,93,79,51,30.37,30.21,6,2,9,0.12
2013-2-21,49.5,41.5,36.3,40.4,37.0,34.8,95,85,62,30.50,30.36,5,1,8,0.02
2013-2-22,56.5,42.5,35.8,42.7,38.5,34.2,95,87,54,30.49,30.26,16,2,16,0.28
2013-2-23,46.8,38.2,33.1,38.9,35.2,31.3,95,89,68,30.66,30.40,6,2,9,0.19
2013-2-24,53.2,40.5,34.0,41.2,35.5,32.7,95,84,58,30.67,30.41,4,2,5,0.00
2013-2-25,55.6,42.0,35.6,40.4,36.5,30.2,96,82,47,30.63,30.40,12,3,13,0.19
2013-2-26,54.9,41.3,32.5,39.4,34.8,30.8,94,80,50,30.63,30.45,4,1,4,0.00
2013-2-27,59.4,45.6,34.3,44.6,37.3,32.4,94,77,44,30.55,30.46,4,1,4,0.00
2013-2-28,59.7,50.4,46.0,50.7,46.9,43.8,96,89,68,30.71,30.47,5,2,5,0.01
2013-3-1,64.8,55.3,44.2,52.7,46.7,42.1,96,75,51,30.67,30.51,5,2,6,0.02
2013-3-2,56.7,49.5,43.2,50.1,46.4,41.3,95,90,76,30.53,30.40,4,1,4,0.02
2013-3-3,50.2,43.9,32.2,46.3,36.7,29.3,95,77,57,30.48,30.35,10,3,12,0.01
2013-3-4,62.2,42.1,28.9,40.9,33.0,26.9,93,75,30,30.38,30.13,6,2,8,0.00
2013-3-5,51.3,41.4,33.1,45.7,37.8,28.7,93,87,77,30.14,29.81,4,1,5,0.40
2013-3-6,52.2,43.0,37.4,41.8,37.8,33.6,96,83,61,30.20,29.76,13,2,17,0.22
2013-3-7,60.8,41.9,32.5,41.3,34.2,25.6,95,78,34,30.25,30.14,8,2,14,0.01
2013-3-8,51.6,39.2,32.2,39.1,34.7,29.9,94,85,57,30.52,30.22,7,2,11,0.00
2013-3-9,64.6,52.4,33.8,44.4,29.0,10.9,85,49,18,30.71,30.59,7,3,8,0.01
2013-3-10,63.3,44.3,28.8,40.0,32.2,13.9,93,70,18,30.73,30.58,4,2,6,0.00
2013-3-11,64.6,49.0,36.7,48.6,40.7,34.0,92,76,46,30.63,30.43,4,1,7,0.00
2013-3-12,62.8,50.5,40.5,49.9,45.3,38.5,95,84,62,30.46,30.35,4,2,5,0.00
2013-3-13,71.1,57.8,49.3,52.2,48.2,43.7,94,74,40,30.43,30.29,3,1,5,0.00
2013-3-14,66.9,56.0,45.7,50.1,45.3,40.5,94,71,43,30.44,30.32,7,2,7,0.00
2013-3-15,77.5,55.4,45.3,50.0,43.8,39.5,90,70,34,30.45,30.35,5,2,9,0.00
2013-3-16,55.0,48.5,43.2,44.8,42.2,40.0,91,80,64,30.43,30.33,8,2,9,0.12
2013-3-17,57.0,45.0,36.9,41.0,34.4,27.7,92,70,39,30.55,30.43,8,2,8,0.04
2013-3-18,57.7,43.0,35.2,40.5,35.0,32.1,90,76,44,30.49,30.30,4,2,8,0.00
2013-3-19,60.8,51.6,41.9,48.3,43.2,39.2,91,75,52,30.30,30.00,6,2,11,0.07
2013-3-20,55.8,49.5,36.5,49.7,41.1,32.4,85,74,57,30.45,29.91,9,4,14,0.27
2013-3-21,52.0,41.3,34.3,41.6,34.7,31.5,93,79,50,30.57,30.46,10,2,12,0.13
2013-3-22,51.8,41.0,34.7,36.1,31.2,24.4,89,71,39,30.58,30.52,8,2,12,0.00
2013-3-23,54.1,42.4,34.3,35.1,30.3,19.7,89,67,29,30.57,30.42,6,2,11,0.00
2013-3-24,60.8,44.2,30.9,40.4,34.1,28.1,91,71,41,30.45,30.25,4,2,8,0.00
2013-3-25,62.6,47.8,35.2,44.9,40.3,33.2,94,77,53,30.26,30.11,6,2,10,0.02
2013-3-26,59.5,49.9,45.1,45.9,43.2,40.4,93,80,52,30.22,30.15,4,1,5,0.01
2013-3-27,63.5,52.5,45.0,51.2,46.7,42.6,94,82,59,30.19,30.10,12,2,12,0.13
2013-3-28,63.9,54.5,49.6,52.9,49.5,47.4,94,84,58,30.35,30.19,5,1,9,0.14
2013-3-29,73.2,57.9,48.4,58.0,50.0,45.0,96,78,46,30.40,30.29,7,2,7,0.02
2013-3-30,77.2,58.2,43.5,53.1,47.2,35.6,95,73,27,30.35,30.13,8,2,8,0.01
2013-3-31,61.3,55.8,53.2,54.2,52.2,50.0,95,88,77,30.25,30.20,4,1,5,0.31
2013-4-1,66.4,55.6,50.9,53.8,51.2,49.2,96,86,60,30.40,30.24,3,1,4,0.34
2013-4-2,73.9,58.7,48.2,52.7,48.5,38.6,94,74,35,30.42,30.31,5,2,10,0.00
2013-4-3,72.0,56.2,44.8,55.8,49.9,42.6,94,81,54,30.38,30.11,4,1,4,0.00
2013-4-4,66.7,57.7,49.8,56.3,51.5,43.9,94,81,55,30.19,29.96,9,3,12,0.34
2013-4-5,61.2,53.8,48.4,52.2,47.1,44.5,95,79,57,30.24,30.14,8,2,9,0.02
2013-4-6,64.0,52.9,49.6,52.0,47.5,42.0,95,83,61,30.28,30.06,11,2,14,0.26
2013-4-7,55.2,48.9,39.9,44.5,39.6,36.4,89,72,55,30.23,30.02,13,5,19,0.34
2013-4-8,57.9,47.1,39.7,44.9,40.4,37.3,93,79,53,30.49,30.24,5,2,10,0.08
2013-4-9,68.4,52.6,43.7,44.4,40.0,30.0,92,68,28,30.55,30.46,7,2,7,0.00
2013-4-10,61.3,50.2,40.5,51.5,43.6,37.8,90,79,65,30.52,30.45,8,2,8,0.02
2013-4-11,61.9,49.8,41.2,43.9,38.1,32.8,85,67,38,30.54,30.34,7,3,12,0.01
2013-4-12,69.3,50.3,33.8,45.6,37.0,27.4,93,67,24,30.36,30.11,7,2,8,0.00
2013-4-13,56.7,48.6,41.7,42.7,37.0,32.2,76,65,46,30.36,30.22,8,4,14,0.06
2013-4-14,54.7,42.9,34.0,41.3,34.7,29.5,92,76,40,30.36,30.14,8,2,8,0.15
2013-4-15,50.0,42.5,39.6,44.0,38.2,36.0,93,85,67,30.40,30.17,5,2,8,0.40
2013-4-16,57.6,46.2,39.2,42.6,37.5,34.5,93,74,46,30.61,30.42,10,3,13,0.00
2013-4-17,65.3,50.2,40.8,44.3,35.0,22.9,90,63,25,30.69,30.61,10,3,15,0.00
2013-4-18,68.7,53.2,40.1,46.2,39.9,34.6,91,66,32,30.68,30.54,8,2,10,0.00
2013-4-19,68.2,53.9,46.8,53.0,46.3,43.7,90,77,50,30.57,30.48,11,3,13,0.04
2013-4-20,70.7,55.0,45.7,47.8,42.4,34.2,91,68,34,30.56,30.43,12,3,12,0.00
2013-4-21,72.1,56.8,46.8,49.6,44.7,40.1,86,67,35,30.51,30.40,5,2,9,0.00
2013-4-22,72.3,57.7,46.6,49.3,43.1,34.9,83,62,36,30.50,30.39,11,3,12,0.00
2013-4-23,74.3,53.7,35.1,43.8,25.9,3.5,91,51,10,30.49,30.29,11,3,18,0.00
2013-4-24,81.7,61.4,35.4,41.2,29.1,8.0,87,43,10,30.36,30.14,6,2,9,0.00
2013-4-25,82.8,59.0,38.3,47.4,36.3,13.0,89,55,11,30.36,30.22,8,2,11,0.00
2013-4-26,86.7,61.8,41.5,51.4,39.4,16.9,90,57,11,30.46,30.35,6,2,7,0.00
2013-4-27,84.4,61.8,43.3,48.4,37.2,9.6,90,53,10,30.51,30.37,9,2,14,0.00
2013-4-28,74.5,56.4,39.7,47.0,40.6,35.6,86,61,28,30.51,30.37,6,2,9,0.00
2013-4-29,65.5,55.8,47.1,49.2,43.3,32.9,88,66,38,30.42,30.32,8,2,11,0.00
2013-4-30,62.8,50.1,40.8,35.5,28.3,14.5,72,49,20,30.58,30.40,17,4,17,0.00
2013-5-1,73.0,51.8,31.8,41.3,31.6,19.5,90,57,18,30.66,30.53,6,2,12,0.00
2013-5-2,82.9,58.8,36.5,45.4,31.5,8.3,91,52,10,30.60,30.38,8,2,9,0.00
2013-5-3,81.7,60.5,40.5,44.9,33.9,11.3,86,51,11,30.48,30.26,10,3,11,0.00
2013-5-4,85.1,63.5,42.1,48.4,35.0,8.3,90,50,10,30.30,29.93,15,3,16,0.00
2013-5-5,88.7,63.3,43.5,54.2,39.3,14.0,89,56,10,30.03,29.80,11,3,13,0.13
2013-5-6,79.9,62.8,49.5,56.1,48.2,41.7,93,66,32,30.19,30.00,11,3,12,0.04
2013-5-7,81.3,63.6,50.2,54.1,49.4,42.7,93,66,32,30.25,30.11,5,2,8,0.01
2013-5-8,79.2,63.2,51.6,53.0,49.8,45.4,89,66,35,30.33,30.24,8,2,10,0.00
2013-5-9,84.7,66.1,49.3,54.5,49.5,44.2,92,62,28,30.40,30.25,5,2,9,0.00
2013-5-10,90.1,68.2,50.0,54.6,50.8,46.9,90,61,28,30.42,30.28,9,2,11,0.00
2013-5-11,90.3,71.0,53.8,60.0,53.8,50.0,87,60,31,30.42,30.20,7,2,8,0.00
2013-5-12,86.4,68.4,53.1,58.1,52.0,40.7,91,62,25,30.35,30.22,11,3,13,0.00
2013-5-13,78.8,64.5,55.4,55.3,47.9,32.5,84,60,22,30.42,30.30,11,3,17,0.00
2013-5-14,74.7,61.1,52.7,46.6,42.1,31.5,75,55,24,30.42,30.27,7,3,9,0.00
2013-5-15,68.9,56.6,46.6,48.9,44.1,39.8,86,66,39,30.35,30.24,4,1,6,0.00
2013-5-16,67.1,57.2,52.5,53.3,48.5,41.0,92,75,46,30.24,30.17,11,3,18,0.06
2013-5-17,67.6,56.5,49.5,50.5,47.0,41.7,90,73,43,30.34,30.24,5,2,10,0.00
2013-5-18,65.8,56.9,49.1,50.8,47.4,43.4,90,72,50,30.54,30.34,8,2,13,0.02
2013-5-19,71.1,58.0,46.2,50.5,45.5,40.6,89,68,37,30.61,30.48,14,3,14,0.01
2013-5-20,81.9,59.8,40.5,49.5,41.7,24.8,92,60,25,30.52,30.17,8,3,13,0.00
2013-5-21,58.6,50.2,41.2,44.5,40.9,36.8,89,72,55,30.34,30.09,15,4,19,0.44
2013-5-22,59.5,48.1,39.7,42.4,39.2,37.3,93,73,47,30.34,30.26,11,3,11,0.02
2013-5-23,64.0,52.3,42.6,44.7,41.1,34.8,91,69,36,30.30,30.25,4,2,7,0.00
2013-5-24,63.0,53.2,47.1,45.6,42.0,34.8,88,69,40,30.33,30.27,6,2,6,0.02
2013-5-25,75.6,58.7,44.2,53.4,43.9,30.8,90,65,24,30.31,30.14,9,2,11,0.09
2013-5-26,72.0,60.6,52.9,53.9,46.9,36.2,93,67,32,30.26,30.20,8,2,12,0.01
2013-5-27,70.2,58.6,51.6,56.2,50.3,45.4,93,76,54,30.23,30.04,8,3,10,0.21
2013-5-28,76.6,62.1,52.9,52.2,47.8,37.0,89,64,27,30.17,29.99,8,2,11,0.01
2013-5-29,72.3,59.5,48.4,53.0,47.3,42.8,88,67,41,30.32,29.99,15,5,17,0.08
2013-5-30,70.5,54.8,41.4,45.5,41.0,35.4,92,65,31,30.47,30.33,11,3,11,0.00
2013-5-31,76.8,59.7,45.9,47.3,42.4,25.8,89,61,19,30.52,30.38,9,2,9,0.00
2013-6-1,83.1,63.9,43.5,51.2,41.3,9.8,91,55,10,30.45,30.20,8,2,11,0.00
2013-6-2,73.6,60.3,48.2,51.4,47.4,42.6,87,66,39,30.28,30.19,8,3,14,0.00
2013-6-3,82.4,63.7,46.2,52.4,40.3,17.8,92,55,13,30.29,30.15,7,3,11,0.00
2013-6-4,88.3,66.9,45.1,49.6,39.0,17.5,85,48,11,30.27,30.13,8,3,9,0.00
2013-6-5,91.2,70.0,46.9,55.2,44.8,28.8,86,51,15,30.30,30.12,9,2,10,0.00
2013-6-6,89.6,72.4,54.5,57.6,52.8,43.5,89,57,24,30.25,30.14,9,3,12,0.00
2013-6-7,89.6,71.2,53.4,55.0,47.2,31.8,89,54,17,30.33,30.22,11,3,15,0.00
2013-6-8,88.0,71.3,56.3,57.3,42.0,9.1,88,49,10,30.32,30.20,10,3,17,0.00
2013-6-9,84.9,68.6,50.7,51.5,42.8,26.6,83,47,19,30.26,30.10,11,4,14,0.00
2013-6-10,78.4,63.4,54.5,48.8,43.8,35.5,73,54,25,30.23,30.06,9,5,13,9.07
2013-6-11,69.8,58.5,50.4,44.2,40.2,30.7,74,55,27,30.36,30.24,6,3,11,0.00
2013-6-12,69.1,58.3,49.1,46.3,42.4,37.4,80,59,35,30.43,30.36,8,2,11,9.83
2013-6-13,69.8,61.5,53.4,44.9,42.1,36.9,71,52,33,30.53,30.43,5,2,7,0.00
2013-6-14,80.4,61.7,44.4,47.7,37.9,18.6,89,53,14,30.52,30.17,7,2,10,0.00
2013-6-15,85.6,65.2,44.1,49.1,42.5,33.4,88,52,20,30.26,30.10,10,3,11,9.83
2013-6-16,86.5,65.3,46.6,49.6,44.2,35.2,84,54,20,30.34,30.23,10,3,10,0.00
2013-6-17,85.3,68.4,47.5,55.8,45.4,33.9,89,50,16,30.34,30.15,16,5,21,0.00
2013-6-18,73.8,61.5,49.6,53.1,45.5,36.0,82,58,27,30.26,30.18,14,4,22,0.24
2013-6-19,68.9,57.4,48.0,53.7,47.4,43.5,89,71,43,30.37,30.22,12,3,14,0.13
2013-6-20,73.2,59.5,45.7,49.9,45.3,41.2,93,64,32,30.37,30.27,8,2,9,0.00
2013-6-21,79.5,63.0,48.6,50.6,43.1,20.0,88,56,11,30.39,30.26,8,3,11,0.00
2013-6-22,90.5,67.4,45.0,54.5,41.6,24.1,90,49,10,30.32,30.08,10,3,11,0.00
2013-6-23,80.4,67.8,58.3,53.7,50.3,45.1,77,56,31,30.09,29.87,10,3,14,0.00
2013-6-24,71.2,61.2,53.8,56.8,52.7,49.3,90,74,48,29.98,29.92,6,1,8,0.12
2013-6-25,75.4,66.0,58.3,60.3,52.9,45.1,94,66,34,30.10,29.93,13,3,15,0.02
2013-6-26,73.8,66.7,59.5,58.3,55.5,52.3,83,68,51,30.25,30.09,4,1,4,0.00
2013-6-27,94.3,74.8,59.5,61.1,55.9,42.9,87,57,18,30.34,30.25,8,2,11,0.00
2013-6-28,67.5,60.3,57.7,58.5,55.5,46.4,90,85,54,30.37,29.72,5,1,5,10.00
2013-6-30,100.4,87.6,68.5,56.8,54.4,48.6,66,35,18,29.72,29.60,9,4,13,0.00
2013-7-1,98.8,80.0,60.6,63.5,58.1,54.2,83,52,23,29.77,29.69,10,2,12,0.00
2013-7-2,100.6,82.2,64.2,65.7,61.2,50.5,88,55,19,29.84,29.71,9,3,11,0.00
2013-7-3,95.7,79.6,64.4,63.0,52.7,32.9,85,47,13,29.87,29.75,10,3,13,0.00
2013-7-4,87.6,71.7,54.7,55.2,43.5,23.2,80,45,10,29.89,29.72,15,4,15,0.00
2013-7-5,84.2,69.6,58.8,52.2,42.0,21.4,70,43,11,29.83,29.66,11,4,18,0.00
2013-7-6,85.6,67.1,52.3,53.0,48.6,38.7,85,57,19,29.73,29.58,7,3,12,0.00
2013-7-7,88.0,70.2,52.9,57.6,50.4,36.6,88,56,17,29.74,29.61,11,3,15,0.00
2013-7-8,92.3,71.2,53.1,56.9,47.2,32.4,90,52,12,29.83,29.70,9,3,11,0.00
2013-7-9,97.5,76.0,53.6,56.6,47.7,36.5,77,43,12,29.87,29.71,11,3,12,0.00
2013-7-10,94.8,76.3,57.9,58.2,52.3,43.6,85,49,18,29.82,29.63,9,3,11,0.00
2013-7-11,67.5,57.5,52.7,50.6,48.8,47.0,82,73,54,29.82,29.75,2,1,4,0.00
2013-7-14,94.1,84.0,65.3,47.0,36.4,28.6,50,21,10,29.73,29.67,12,5,12,0.00
2013-7-15,95.4,73.9,54.1,53.3,40.8,25.8,80,39,10,29.76,29.52,8,3,12,0.00
2013-7-16,97.7,74.0,59.9,53.1,48.5,37.2,71,46,13,29.81,29.57,11,3,12,0.00
2013-7-17,90.5,70.8,54.7,54.4,51.2,44.3,85,55,21,29.93,29.81,9,3,11,0.00
2013-7-18,92.3,73.2,54.0,56.6,47.2,27.4,86,49,10,29.96,29.79,11,3,13,0.00
2013-7-19,95.9,74.3,54.5,56.6,47.8,29.6,85,48,10,29.91,29.72,8,3,13,0.00
2013-7-20,91.4,72.8,55.0,57.1,48.3,24.8,88,50,10,29.83,29.65,9,3,14,0.00
2013-7-21,96.4,74.9,54.1,56.5,43.2,26.3,83,42,10,29.73,29.59,10,3,11,0.00
2013-7-22,98.6,76.3,54.0,56.3,42.5,23.0,81,40,10,29.78,29.64,11,3,11,0.00
2013-7-23,100.6,76.2,52.3,53.8,43.6,28.6,75,39,10,29.82,29.67,8,2,10,0.00
2013-7-24,98.4,80.5,64.4,57.5,46.1,23.3,71,38,10,29.80,29.68,11,2,11,0.00
2013-7-25,101.3,80.0,59.5,54.9,41.8,23.0,75,34,10,29.83,29.69,8,3,11,0.00
2013-7-26,99.3,79.8,63.7,55.4,41.5,23.3,67,32,10,29.88,29.77,8,3,13,0.00
2013-7-27,93.2,75.0,57.0,51.1,38.8,21.3,71,35,10,29.93,29.71,12,4,15,0.00
2013-7-28,90.1,69.8,50.5,51.0,41.2,22.5,82,45,10,29.84,29.67,10,3,12,0.00
2013-7-29,88.5,68.7,52.7,52.6,47.7,31.5,83,54,13,29.81,29.68,8,2,12,0.01
2013-7-30,88.3,68.7,51.3,53.1,48.9,34.0,88,55,15,29.92,29.81,8,2,11,0.00
2013-7-31,85.1,68.6,61.0,54.1,52.3,49.7,73,58,32,29.90,29.78,11,3,12,0.00
2013-8-1,73.0,64.5,59.4,53.7,50.6,47.7,76,62,42,29.93,29.88,9,3,9,0.00
2013-8-2,86.4,69.6,59.2,52.3,48.2,35.6,74,51,18,29.93,29.77,16,3,16,0.00
2013-8-3,90.5,69.9,50.9,54.9,46.0,31.9,87,50,14,29.88,29.71,10,3,12,0.00
2013-8-4,95.7,73.4,51.8,54.3,46.0,30.1,80,46,10,29.82,29.64,9,2,10,0.00
2013-8-5,96.4,75.7,56.5,57.4,49.1,30.5,83,48,10,29.80,29.64,8,2,10,0.00
2013-8-6,89.1,71.0,57.9,58.7,54.3,50.3,84,59,27,29.78,29.64,8,2,11,0.00
2013-8-7,85.5,69.1,58.3,51.9,49.1,42.6,75,51,24,29.83,29.73,8,2,11,0.00
2013-8-8,84.4,68.3,53.1,56.8,51.3,47.8,85,59,29,29.85,29.67,8,2,13,0.00
2013-8-9,90.3,71.9,59.0,62.8,56.1,50.2,93,62,27,29.75,29.60,15,2,17,0.72
2013-8-10,78.4,65.4,59.5,66.9,60.9,57.8,95,86,59,29.86,29.74,7,2,8,0.19
2013-8-11,84.0,68.3,60.3,62.6,57.7,52.0,94,72,34,29.87,29.72,8,2,8,0.01
2013-8-12,82.8,67.8,57.7,58.3,55.4,51.6,90,68,38,29.86,29.75,8,2,10,0.00
2013-8-13,92.5,70.5,52.7,59.0,52.8,44.6,93,61,20,29.89,29.69,8,2,14,0.00
2013-8-14,90.9,66.9,54.9,55.3,51.1,36.7,90,64,15,29.80,29.65,8,2,13,0.00
2013-8-15,91.2,71.8,55.4,62.1,55.2,2.8,89,61,10,29.77,29.67,8,2,11,0.00
2013-8-16,90.1,74.9,64.0,63.9,60.1,54.2,89,64,34,29.83,29.73,11,2,11,0.00
2013-8-17,90.5,71.9,55.2,58.7,53.2,36.5,90,58,16,29.89,29.75,11,3,12,0.00
2013-8-18,91.0,72.5,55.8,62.0,53.3,38.0,93,58,16,29.91,29.76,10,3,12,0.00
2013-8-19,94.8,73.6,48.7,62.5,51.8,5.9,92,54,16,29.90,29.72,12,3,13,0.00
2013-8-20,77.0,62.9,56.3,59.1,52.0,37.7,87,70,31,29.86,29.73,5,1,6,0.00
2013-8-21,91.6,72.9,59.9,54.3,46.9,38.3,67,44,16,29.77,29.60,8,2,10,0.00
2013-8-22,84.9,70.9,61.0,66.0,56.3,50.0,86,62,31,29.75,29.65,11,2,14,0.01
2013-8-23,86.2,68.3,54.3,60.6,54.1,49.8,93,65,33,29.74,29.62,11,3,11,0.00
2013-8-24,81.5,65.9,53.6,54.5,52.3,49.4,88,64,36,29.72,29.61,8,2,10,0.00
2013-8-25,75.2,64.6,59.2,63.2,58.5,53.8,93,81,62,29.73,29.67,7,1,7,0.11
2013-8-26,86.9,70.2,59.7,62.1,52.0,34.9,93,61,16,29.76,29.68,17,3,17,0.00
2013-8-27,94.1,68.9,50.7,56.4,50.1,30.4,92,58,11,29.76,29.53,9,2,14,0.00
2013-8-28,94.1,74.3,60.1,60.4,54.2,37.6,87,55,14,29.67,29.58,10,2,11,0.00
2013-8-29,90.0,73.5,62.1,62.2,55.3,48.8,87,58,26,29.87,29.65,16,4,18,0.00
2013-8-30,90.3,71.9,55.9,60.7,54.1,47.1,90,59,25,29.93,29.75,7,2,11,0.00
2013-8-31,95.2,72.8,54.7,61.0,55.4,51.3,93,60,23,29.81,29.58,11,3,11,0.00
2013-9-1,94.8,72.6,55.0,59.2,48.0,26.3,91,52,10,29.73,29.55,11,3,12,0.00
2013-9-2,86.0,70.0,55.6,57.5,50.6,42.5,85,54,24,29.72,29.64,15,4,15,0.00
2013-9-3,87.4,72.2,60.6,55.9,49.2,30.5,75,49,13,29.79,29.69,10,2,12,0.00
2013-9-4,81.3,69.0,58.3,56.1,53.1,50.6,81,59,35,29.84,29.75,8,2,10,0.00
2013-9-5,70.3,65.4,59.0,55.3,53.4,50.9,82,66,55,29.94,29.78,10,2,10,0.00
2013-9-6,82.8,67.2,55.6,55.3,50.9,42.8,87,61,25,29.99,29.83,10,3,10,0.00
2013-9-7,89.1,67.3,50.7,56.0,50.4,44.1,91,61,21,29.86,29.67,10,2,11,0.00
2013-9-8,90.5,69.0,50.0,58.0,49.9,44.7,88,57,21,29.84,29.69,12,3,12,0.00
2013-9-9,94.5,72.5,52.9,60.8,49.8,33.6,90,53,13,29.81,29.62,10,2,12,0.00
2013-9-10,100.8,74.7,53.6,58.5,47.7,32.3,85,48,10,29.69,29.48,6,2,7,0.00
2013-9-11,100.6,76.3,55.8,57.3,51.9,46.6,84,49,17,29.73,29.58,9,2,11,0.00
2013-9-12,96.4,72.9,55.0,59.0,52.4,47.2,88,54,19,29.79,29.64,8,2,11,0.00
2013-9-13,94.3,71.5,53.2,56.8,52.1,45.2,85,56,19,29.76,29.56,10,2,12,0.00
2013-9-14,92.5,71.0,55.6,63.3,56.2,45.5,91,64,20,29.62,29.43,7,2,10,0.00
2013-9-15,78.1,66.4,60.6,57.9,54.7,50.9,88,68,40,29.71,29.53,9,2,13,0.00
2013-9-16,79.3,67.4,60.8,52.7,49.3,44.1,73,54,29,29.78,29.66,8,2,12,0.00
2013-9-17,68.4,61.3,52.0,59.0,53.9,49.1,91,77,61,29.86,29.64,11,2,11,0.45
2013-9-18,74.5,58.8,48.6,54.6,48.0,44.0,94,72,34,29.91,29.75,7,2,8,0.00
2013-9-19,84.2,61.4,43.3,55.6,45.7,30.6,94,65,15,29.79,29.55,6,2,7,0.00
2013-9-20,73.0,58.0,47.5,59.2,52.5,45.3,95,84,45,29.59,29.47,8,1,13,0.38
2013-9-21,68.7,58.3,53.6,58.4,55.1,51.9,96,90,61,29.66,29.49,11,1,11,0.38
2013-9-22,67.3,57.8,41.4,55.6,51.8,40.0,96,82,54,29.75,29.60,11,2,14,0.02
2013-9-23,64.4,59.4,56.1,59.5,56.2,54.6,95,89,80,29.82,29.74,4,1,7,0.11
2013-9-24,64.8,56.2,49.3,55.2,51.1,46.4,96,84,53,29.79,29.71,8,2,11,0.43
2013-9-25,63.7,51.0,45.1,49.7,47.1,43.2,95,87,53,29.86,29.72,8,2,10,0.21
2013-9-26,67.1,54.4,46.2,52.1,45.0,37.9,96,75,37,29.98,29.85,10,2,11,0.00
2013-9-27,64.2,54.6,43.5,52.9,47.7,41.4,94,79,55,30.01,29.85,4,1,4,0.00
2013-9-28,72.7,60.6,52.3,57.0,52.4,48.4,94,77,43,29.84,29.49,23,4,23,0.73
2013-9-29,62.2,56.6,52.9,56.0,52.3,46.0,97,86,62,29.62,29.43,12,3,19,0.99
2013-9-30,66.4,54.8,47.5,53.6,49.1,44.6,96,82,56,29.85,29.55,9,2,11,0.05
2013-10-1,67.5,51.8,45.1,52.2,47.0,43.1,95,85,57,29.99,29.85,14,1,15,0.13
2013-10-2,64.4,51.4,46.4,49.5,45.5,42.1,94,82,50,30.00,29.88,6,2,8,0.05
2013-10-3,61.3,49.8,41.7,49.3,43.5,39.6,96,81,52,30.17,30.00,6,2,11,0.01
2013-10-4,66.6,50.4,39.7,48.3,42.7,38.2,95,78,41,30.21,30.06,4,1,4,0.00
2013-10-5,73.2,51.6,37.4,50.2,42.4,35.6,96,76,29,30.11,29.90,4,1,4,0.00
2013-10-6,79.0,54.2,37.8,53.9,38.0,14.5,96,67,10,29.95,29.78,9,2,13,0.00
2013-10-7,70.3,52.0,42.4,53.5,43.8,38.7,92,76,47,29.97,29.82,8,2,12,0.02
2013-10-8,59.9,50.7,42.8,49.1,45.4,40.9,94,83,57,29.98,29.78,4,1,5,0.05
2013-10-9,57.4,49.2,41.4,44.9,42.1,38.7,92,77,58,29.81,29.75,7,2,10,0.01
2013-10-10,66.4,49.2,37.9,48.3,40.5,34.9,95,76,35,29.88,29.75,7,1,7,0.00
2013-10-11,60.3,50.4,41.2,46.7,44.1,39.0,92,80,58,29.93,29.86,4,1,7,0.00
2013-10-12,59.2,49.1,39.2,48.1,43.5,37.4,95,82,58,29.91,29.83,4,1,6,0.01
2013-10-13,64.6,49.6,40.1,46.3,41.7,38.0,94,77,46,30.04,29.91,5,2,8,0.00
2013-10-14,59.9,45.3,35.8,46.4,40.2,34.0,95,84,53,30.11,29.99,4,1,5,0.00
2013-10-15,63.7,47.0,36.9,49.9,41.0,35.0,96,82,47,30.05,29.88,4,1,4,0.00
2013-10-16,68.0,47.8,34.5,50.1,41.2,33.1,96,81,43,29.95,29.85,3,1,4,0.00
2013-10-17,69.3,50.2,38.7,53.5,43.3,36.8,97,80,44,29.99,29.86,3,1,4,0.00
2013-10-18,68.7,49.6,37.8,53.3,44.2,36.2,97,83,54,29.95,29.82,3,1,4,0.00
2013-10-19,71.1,52.7,41.7,55.5,46.9,40.4,97,83,49,29.94,29.83,3,1,4,0.00
2013-10-20,68.9,52.8,44.4,54.5,47.8,42.4,97,85,56,29.93,29.80,3,1,4,0.00
2013-10-21,70.2,51.8,41.5,55.9,46.8,39.9,97,85,51,29.87,29.72,4,1,4,0.00
2013-10-22,72.0,52.7,41.7,55.8,47.0,40.4,97,83,47,29.85,29.71,3,1,3,0.00
2013-10-23,71.4,54.3,45.1,57.6,48.7,43.8,98,84,48,29.81,29.69,3,1,4,0.00
2013-10-24,68.7,53.6,45.0,57.5,49.4,43.3,98,87,56,29.88,29.75,3,1,4,0.00
2013-10-25,63.7,50.8,44.8,53.0,47.6,43.0,97,90,67,30.02,29.88,4,1,6,0.00
2013-10-26,60.3,50.2,42.8,52.0,47.3,40.9,96,90,73,30.04,29.92,4,1,5,0.01
2013-10-27,57.0,50.3,47.5,49.6,45.7,43.9,95,85,65,29.93,29.59,10,3,14,0.07
2013-10-28,54.5,48.7,37.9,45.2,42.4,36.1,93,79,64,29.65,29.54,5,2,8,0.00
2013-10-29,58.6,45.1,36.7,47.1,39.9,34.9,95,83,54,29.86,29.66,4,1,4,0.00
2013-10-30,59.0,45.2,36.0,48.5,41.1,34.4,97,87,63,29.99,29.86,5,1,5,0.01
2013-10-31,66.0,50.9,39.9,50.9,45.3,38.6,97,83,54,30.05,29.95,4,1,4,0.00
2013-11-1,63.5,52.4,44.4,52.9,48.7,42.8,96,88,66,30.01,29.76,4,1,4,0.00
2013-11-2,58.1,48.8,40.6,50.7,44.9,38.3,98,87,60,29.98,29.68,9,2,14,0.20
2013-11-3,57.0,44.4,38.8,48.1,41.4,37.6,97,90,63,30.01,29.95,7,1,9,0.11
2013-11-4,53.1,46.6,41.2,44.8,42.6,40.1,96,87,69,30.00,29.95,4,1,4,0.00
2013-11-5,54.3,50.2,46.2,51.3,48.5,44.2,98,94,87,30.06,29.95,2,0,4,0.33
2013-11-6,61.0,54.4,50.9,56.1,52.3,50.4,98,93,79,30.08,29.92,4,1,4,0.00
2013-11-7,58.8,50.6,41.4,56.2,49.1,40.3,98,95,80,29.98,29.82,5,1,8,0.15
2013-11-8,50.0,46.0,43.5,44.2,42.9,40.9,97,89,79,30.01,29.87,4,1,4,0.00
2013-11-9,61.5,47.2,37.0,49.5,42.8,35.7,95,86,57,29.88,29.78,3,1,4,0.00
2013-11-10,59.2,46.6,41.5,51.6,44.5,40.8,98,93,75,29.87,29.78,2,1,4,0.00
2013-11-11,52.5,48.0,45.7,48.0,46.3,44.8,98,94,84,29.90,29.77,4,1,4,0.00
2013-11-12,62.1,53.5,46.6,55.8,51.3,45.8,98,92,78,30.17,29.88,3,1,3,0.04
2013-11-13,61.0,53.7,48.0,53.9,49.5,44.9,96,86,63,30.22,30.02,6,1,9,0.01
2013-11-14,52.3,48.2,40.8,48.4,44.0,38.7,95,86,67,30.02,29.88,4,1,4,0.00
2013-11-15,52.0,45.6,41.0,45.5,41.7,39.7,97,87,71,29.88,29.58,3,1,4,0.02
2013-11-16,51.6,46.1,42.3,49.3,43.2,39.5,97,90,74,29.74,29.52,4,1,10,0.13
2013-11-17,55.6,45.2,36.7,47.4,40.9,35.3,97,86,56,29.86,29.75,4,1,6,0.01
2013-11-18,50.5,42.8,36.7,49.2,41.5,35.6,97,95,91,29.83,29.62,6,1,6,0.11
2013-11-19,56.1,51.2,46.8,54.1,50.3,46.4,99,97,92,29.68,29.59,5,1,8,0.99
2013-11-20,48.9,40.4,37.4,47.0,36.1,33.5,93,84,79,30.01,29.69,8,2,13,0.01
2013-11-21,42.3,35.8,28.2,34.4,30.7,26.5,94,82,67,30.28,30.02,5,1,6,0.00
2013-11-22,42.3,34.3,29.5,35.1,31.2,27.7,96,88,72,30.27,30.11,4,1,4,0.00
2013-11-23,41.9,33.4,30.4,36.8,31.7,29.1,98,94,82,30.11,29.90,4,1,4,0.00
2013-11-24,45.1,34.5,29.8,41.5,33.2,29.0,98,95,86,30.06,29.93,3,1,4,0.00
2013-11-25,45.7,34.7,30.7,42.6,33.6,30.0,99,96,88,30.13,30.04,2,1,3,0.00
2013-11-26,49.8,36.8,32.4,42.6,35.2,31.5,99,94,75,30.06,29.84,3,1,3,0.00
2013-11-27,50.5,38.5,33.3,44.9,36.9,32.5,99,94,77,29.84,29.67,2,1,4,0.00
2013-11-28,46.8,38.9,34.5,43.9,37.8,33.7,99,96,88,29.97,29.75,3,1,4,0.00
2013-11-29,43.2,39.4,37.0,41.0,38.6,36.0,99,97,91,30.13,29.97,3,1,4,0.01
2013-11-30,46.0,40.8,37.2,44.0,40.0,36.2,99,97,91,30.19,30.10,4,1,4,0.00
2013-12-1,55.9,45.1,39.2,49.1,43.1,38.9,99,93,74,30.17,29.95,3,1,4,0.00
2013-12-2,54.5,45.1,31.6,50.0,41.8,30.4,98,89,76,29.95,29.77,11,2,15,0.22
2013-12-3,43.2,36.7,32.4,36.7,33.2,27.3,97,87,71,29.91,29.83,8,1,9,0.01
2013-12-4,35.2,29.2,20.3,26.6,22.7,18.1,91,77,58,30.03,29.91,5,1,6,0.00
2013-12-5,34.9,25.7,18.7,27.1,22.5,16.7,93,88,71,30.01,29.90,4,1,5,0.00
2013-12-6,35.8,30.6,27.0,32.7,28.9,24.7,98,93,88,29.90,29.59,2,0,4,0.00
2013-12-7,27.7,24.9,18.3,25.9,20.8,15.8,93,84,71,30.11,29.72,0,0,0,0.00
2013-12-8,26.2,21.2,14.5,21.3,17.8,12.2,92,86,79,30.33,30.11,0,0,0,0.00
2013-12-9,30.6,22.6,15.6,25.1,19.5,13.5,93,88,77,30.35,30.25,0,0,0,0.00
2013-12-10,34.5,26.5,21.4,28.4,23.8,19.9,96,90,77,30.29,30.14,0,0,2,0.01
2013-12-11,38.3,30.2,25.9,33.6,28.2,24.9,98,93,83,30.14,30.00,2,0,3,0.01
2013-12-12,37.8,33.3,28.6,34.7,32.1,28.1,98,96,87,30.04,29.92,4,0,4,0.15
2013-12-13,49.6,38.1,31.5,44.3,36.4,30.5,99,94,80,30.21,30.04,3,1,4,0.05
2013-12-14,42.8,36.6,32.7,40.1,35.5,31.5,98,96,88,30.24,30.17,3,1,4,0.01
2013-12-15,39.9,35.6,31.8,37.2,34.5,30.6,99,96,90,30.28,30.18,2,1,4,0.00
2013-12-16,37.8,34.7,32.9,36.3,34.0,32.6,99,97,93,30.21,30.03,3,1,4,0.00
2013-12-17,42.3,34.6,31.5,40.3,33.9,31.2,99,97,92,30.03,29.91,2,1,4,0.00
2013-12-18,41.7,37.5,33.4,39.6,36.6,33.2,99,97,90,29.94,29.78,4,1,4,0.05
2013-12-19,39.9,34.4,29.1,39.4,30.9,27.6,98,87,73,30.01,29.85,18,2,18,0.04
2013-12-20,41.4,36.2,30.2,38.0,33.6,29.0,96,90,79,29.99,29.81,4,1,4,0.02
2013-12-21,49.1,45.8,42.6,46.3,44.3,41.6,98,94,88,30.06,29.95,4,1,4,0.04
2013-12-22,53.8,45.2,38.7,48.2,43.5,37.6,99,94,78,30.17,30.06,4,1,4,0.01
2013-12-23,49.3,45.8,42.3,46.8,44.9,41.6,99,97,89,30.25,30.16,2,0,2,0.02
2013-12-24,50.5,46.9,44.4,48.4,45.1,42.8,99,94,82,30.28,30.19,4,1,4,0.01
2013-12-25,45.7,40.3,33.6,42.8,38.1,32.3,98,92,85,30.21,30.10,4,1,4,0.00
2013-12-26,45.7,37.2,33.4,42.6,36.2,32.6,98,96,89,30.14,29.99,3,1,4,0.01
2013-12-27,41.4,34.6,31.3,39.9,34.0,30.5,99,98,93,30.12,29.96,4,1,5,0.01
2013-12-28,39.0,36.0,33.3,38.0,35.0,33.0,99,96,92,30.23,30.11,2,1,4,0.00
2013-12-29,41.7,35.7,30.7,36.3,33.3,29.2,96,91,81,30.19,30.02,3,1,4,0.00
2013-12-30,43.5,36.0,30.7,38.7,34.0,29.7,97,93,82,30.04,29.98,3,1,3,0.00
2013-12-31,48.6,36.0,30.4,42.0,34.3,29.1,99,94,77,30.11,30.02,3,1,3,0.00
2014-1-1,40.8,34.3,31.3,39.0,33.4,30.4,99,97,93,30.12,30.01,3,1,4,0.00
2014-1-2,44.6,37.6,33.1,41.9,36.8,32.6,99,97,90,30.04,29.89,2,1,4,0.00